Location: *
(28.3744°N, 81.5492°W)
Time: 04:09:57
(UTC+00:00)

CZ-2C R/B - Pass Details

Date: 15 June 2025
Orbit: 783 x 866 km, 98.4° (Epoch: 11 July)

Event Time Altitude Azimuth Distance (km) Brightness Sun altitude
Exits shadow 07:00:22 29° 334° (NNW) 1,434 4.1 -33.6°
Drops below altitude 10° 07:02:54 10° 342° (NNW) 2,377 5.5 -33.4°
Sets 07:05:16 0° 345° (NNW) 3,322 6.4 -33.1°
